Overview Statistics Trail Chart Weather Telemetry Raw packets
 

This is the latest recevied weather packets stored in our database for station/object KB1WCR. If no packets are shown the sender has not sent any weather packets the latest 10 day(s).

<< 51 52 53 54 55 56 57 >>
Time Temp. Humidity Pressure Rain* Wind** Luminosity Snow
1788052914 13.33° C 98% 1020.3 hPa 0 mm - 0 W/m² -
1788052608 13.33° C 97% 1020.4 hPa 0 mm - 0 W/m² -
1788052304 13.33° C 97% 1020.6 hPa 0 mm - 0 W/m² -
1788051999 13.33° C 97% 1020.4 hPa 0 mm - 0 W/m² -
1788051693 13.33° C 96% 1020.6 hPa 0 mm - 0 W/m² -
1788051391 13.33° C 96% 1020.4 hPa 0 mm - 0 W/m² -
1788051086 13.89° C 95% 1020.6 hPa 0 mm - 0 W/m² -
1788050786 13.89° C 95% 1020.7 hPa 0 mm - 0 W/m² -
1788050480 13.89° C 97% 1020.7 hPa 0 mm - 0 W/m² -
1788050175 13.89° C 94% 1020.5 hPa 0 mm - 0 W/m² -
1788049869 13.89° C 94% 1020.4 hPa 0 mm - 0 W/m² -
1788049562 14.44° C 93% 1020.5 hPa 0 mm - 0 W/m² -
1788049257 14.44° C 93% 1020.1 hPa 0 mm - 0 W/m² -
1788048952 14.44° C 92% 1020.3 hPa 0 mm - 0 W/m² -
1788048648 15° C 91% 1020.3 hPa 0 mm - 0 W/m² -
1788048344 15° C 89% 1020.2 hPa 0 mm - 0 W/m² -
1788048040 15.56° C 89% 1020 hPa 0 mm - 0 W/m² -
1788047737 15.56° C 88% 1019.9 hPa 0 mm - 0 W/m² -
1788047432 16.11° C 87% 1020.1 hPa 0 mm - 0 W/m² -
1788047126 16.11° C 87% 1019.8 hPa 0 mm - 0 W/m² -
1788046821 16.67° C 86% 1019.8 hPa 0 mm - 0 W/m² -
1788046520 17.22° C 84% 1019.7 hPa 0 mm - 1 W/m² -
1788046216 17.78° C 82% 1019.8 hPa 0 mm - 1 W/m² -
1788045913 17.78° C 83% 1019.6 hPa 0 mm - 3 W/m² -
1788045609 17.22° C 83% 1019.5 hPa 0 mm - 4 W/m² -

* Rain latest hour (hover to see other rain measurements)
** Current wind speed in m/s (hover to see current wind gust speed)